Location: ?????
(33.6267°N, 35.4675°E)
Time: 10:36:50
(UTC+00:00)

Cosmos 2227 Rocket - Pass Details

Date: 12 November 2019
Orbit: 838 x 846 km, 71.0° (Epoch: 09 December)

Event Time Altitude Azimuth Distance (km) Brightness Sun altitude
Rises 16:00:45 0° 345° (NNW) 3,408 5.4 -17.5°
Reaches altitude 10° 16:03:17 10° 350° (N) 2,469 4.6 -18.0°
Maximum altitude 16:08:47 51° 66° (ENE) 1,058 2.3 -19.2°
Enters shadow 16:12:41 19° 135° (SE) 1,903 3.7 -20.0°
